Weather in New York

United States     40°42′57″N   74°00′10″W
temp.,
°C
wind,
m/s
gust,
m/s
humid.,
%
clouds,
%
prec.,
mm/h
press.,
hPa
HPBL,
m
21 june, mon
mon2123:00+24sse228588 1.4 100972
02:00+23ssw3891100 1.6 1008278
05:00+22ssw2595100 1.9 1007176
08:00+24ssw4689100 3.1 1007312
11:00+27ssw456994 0.0 1006827
14:00+29s6761100 0.0 1004949
17:00+28sse6863100 0.0 1003454
20:00+25s61276100 0.1 1002380
22 june, tue
tue2223:00+23wnw2489100 3.3 1003200
02:00+23sw61391100 3.4 1004550
05:00+22nw499097 0.1 1003581
08:00+21nw576346 0.1 1007551
11:00+21nw6753100 0.0 1009826
14:00+17nw4779100 0.8 1010553
17:00+18nw3673100 0.3 1011548
20:00+19nw575396 0.3 10131156
23 june, wed
wed2323:00+16nw51052100 0.0 1015877
02:00+15nw51149100 0.0 1016698
05:00+14nnw49510 0.0 1018417
08:00+16nnw47450 0.0 1021556
11:00+21nnw45301 0.0 10231749
14:00+24nw35255 0.0 10222410
17:00+26nnw34265 0.0 10222250
20:00+24nne12320 0.0 1024837
24 june, thu
thu2423:00+21wsw23435 0.0 1025150
02:00+18w245540 0.0 1027164
05:00+17nnw125389 0.0 102781
08:00+20ne2248100 0.0 1029341
11:00+24sse44358 0.0 10291579
14:00+25sse55304 0.0 10281627
17:00+24sse66321 0.0 10271235
20:00+21sse46470 0.0 1028905
25 june, fri
fri2523:00+20ese36600 0.0 1028565
02:00+19e24690 0.0 1027311
05:00+18e3674100 0.0 1025330
08:00+19ne357899 0.1 1026391
11:00+21ene3579100 0.1 1025518
14:00+23e237792 0.1 1024600
17:00+25sse566429 0.1 1022897
20:00+23sse597745 0.1 1022550